period_start,C,m1,H,J0,J1,J2,J3,J4,J5,JA,JB,JC,JD,JJ,JK,JN,#
2013-07-20 00:00:55,0.06,0.54,0.00,29.09,32.12,34.28,5.84,32.25,1014.19,2036.43,3212.99,3161.10,3437.95,348.98,315.89,12.92,0000 0000 0000 0000 000000
2013-07-20 00:01:55,0.05,0.54,0.00,29.12,32.12,34.29,5.93,33.29,1014.19,2036.44,3212.99,3161.10,3437.98,349.91,316.54,12.93,0000 0000 0000 0000 000000
2013-07-20 00:02:55,0.00,0.54,0.00,29.11,32.12,34.28,5.92,32.21,1014.19,2036.59,3212.99,3161.09,3437.98,349.60,316.30,12.93,0000 0000 0000 0000 000000
2013-07-20 00:03:55,0.10,0.54,0.00,29.10,32.12,34.29,5.77,32.13,1014.20,2036.69,3212.99,3161.08,3437.98,348.90,315.68,12.94,0000 0000 0000 0000 000000
2013-07-20 00:04:55,0.07,0.54,0.00,29.10,32.12,34.31,5.77,31.83,1014.19,2036.60,3212.99,3161.07,3437.97,349.10,315.86,12.95,0000 0000 0000 0000 000000
2013-07-20 00:05:56,-0.10,0.54,0.00,29.07,32.12,34.29,5.89,33.04,1014.19,2036.60,3212.99,3161.06,3437.97,350.95,317.56,12.95,0000 0000 0000 0000 000000
2013-07-20 00:06:56,0.04,0.54,0.00,29.11,32.11,34.29,5.83,32.58,1014.19,2036.70,3212.99,3161.07,3437.99,349.79,316.46,12.96,0000 0000 0000 0000 000000
2013-07-20 00:07:56,0.09,0.54,0.00,29.14,32.10,34.26,5.87,32.33,1014.18,2036.83,3212.99,3161.14,3437.99,351.38,317.32,12.96,0000 0000 0000 0000 000000
2013-07-20 00:08:56,0.06,0.54,0.00,29.13,32.10,34.26,5.87,32.63,1014.18,2036.88,3213.00,3161.25,3437.99,349.61,316.66,12.97,0000 0000 0000 0000 000000
2013-07-20 00:09:57,0.00,0.54,0.00,29.14,32.10,34.28,5.70,32.25,1014.19,2036.92,3213.01,3161.34,3437.99,348.76,315.50,12.98,0000 0000 0000 0000 000000
2013-07-20 00:10:57,0.01,0.54,0.00,29.12,32.10,34.29,6.06,32.96,1014.19,2036.90,3213.00,3161.38,3437.99,350.89,317.44,12.98,0000 0000 0000 0000 000000
2013-07-20 00:11:57,-0.02,0.54,0.00,29.08,32.10,34.25,5.92,32.71,1014.18,2036.90,3213.00,3161.53,3437.99,349.95,316.64,12.99,0000 0000 0000 0000 000000
2013-07-20 00:12:57,-0.02,0.54,0.00,29.10,32.10,34.24,5.85,32.17,1014.20,2036.91,3213.03,3161.48,3437.99,350.45,316.68,12.99,0000 0000 0000 0000 000000
2013-07-20 00:13:57,0.01,0.54,0.00,29.17,32.10,34.26,5.80,32.25,1014.19,2036.93,3213.03,3161.49,3437.99,348.46,315.23,13.00,0000 0000 0000 0000 000000
2013-07-20 00:14:58,0.00,0.54,0.00,29.19,32.10,34.25,5.88,32.46,1014.18,2036.95,3213.03,3161.58,3437.99,349.94,316.53,13.00,0000 0000 0000 0000 000000
2013-07-20 00:15:58,0.00,0.54,0.00,29.13,32.10,34.25,6.02,32.83,1014.18,2036.95,3213.01,3161.56,3437.99,351.47,317.96,13.01,0000 0000 0000 0000 000000
2013-07-20 00:16:58,0.00,0.54,0.00,29.10,32.10,34.23,5.94,32.88,1014.20,2036.94,3213.00,3161.58,3437.99,350.69,317.23,13.02,0000 0000 0000 0000 000000
2013-07-20 00:17:58,0.01,0.54,0.00,29.10,32.10,34.22,5.83,32.46,1014.19,2036.97,3213.01,3161.50,3437.99,349.82,316.54,13.02,0000 0000 0000 0000 000000
2013-07-20 00:18:59,0.03,0.54,0.00,29.09,32.09,34.24,5.79,32.79,1014.19,2036.97,3213.04,3161.56,3437.99,348.67,315.87,13.03,0000 0000 0000 0000 000000
2013-07-20 00:19:59,-0.03,0.54,0.00,29.09,32.08,34.22,5.83,32.67,1014.19,2036.96,3213.03,3161.65,3437.99,349.89,316.58,13.03,0000 0000 0000 0000 000000
2013-07-20 00:20:59,-0.02,0.54,0.00,29.09,32.08,34.21,5.78,32.21,1014.19,2036.94,3213.02,3161.74,3437.99,349.04,316.30,13.04,0000 0000 0000 0000 000000
2013-07-20 00:21:59,-0.02,0.54,0.00,29.11,32.07,34.27,5.81,32.58,1014.19,2036.97,3213.01,3161.78,3437.99,349.65,316.28,13.05,0000 0000 0000 0000 000000
2013-07-20 00:22:59,0.02,0.54,0.00,29.06,32.07,34.24,5.96,32.96,1014.19,2036.96,3213.03,3161.78,3437.99,350.66,317.76,13.05,0000 0000 0000 0000 000000
2013-07-20 00:23:59,0.00,0.54,0.00,29.03,32.07,34.27,6.00,32.58,1014.19,2036.98,3213.06,3161.83,3437.99,350.98,317.62,13.06,0000 0000 0000 0000 000000
2013-07-20 00:25:00,-0.00,0.54,0.00,29.07,32.07,34.27,5.95,32.92,1014.19,2036.99,3213.07,3161.91,3437.99,350.75,316.91,13.06,0000 0000 0000 0000 000000
2013-07-20 00:26:00,-0.01,0.54,0.00,29.06,32.07,34.27,5.79,32.67,1014.21,2036.99,3213.08,3161.93,3437.99,349.56,316.28,13.07,0000 0000 0000 0000 000000
2013-07-20 00:27:00,0.00,0.54,0.00,29.09,32.07,34.27,5.73,32.54,1014.20,2036.99,3213.06,3161.95,3437.99,349.82,316.52,13.07,0000 0000 0000 0000 000000
2013-07-20 00:28:00,0.00,0.54,0.00,29.13,32.07,34.30,5.72,32.13,1014.19,2036.99,3213.04,3161.95,3438.00,349.67,316.34,13.08,0000 0000 0000 0000 000000
2013-07-20 00:29:00,-0.00,0.54,0.00,29.16,32.07,34.27,5.92,33.13,1014.19,2036.98,3213.03,3161.92,3438.01,351.44,317.91,13.09,0000 0000 0000 0000 000000
2013-07-20 00:30:01,-0.00,0.54,0.00,29.18,32.07,34.27,5.66,32.50,1014.20,2036.97,3213.02,3161.75,3438.00,348.98,315.67,13.09,0000 0000 0000 0000 000000
2013-07-20 00:31:01,0.03,0.54,0.00,29.18,32.07,34.29,5.87,32.92,1014.19,2036.97,3213.00,3161.71,3438.00,350.58,317.11,13.10,0000 0000 0000 0000 000000
2013-07-20 00:32:01,0.02,0.54,0.00,29.21,32.06,34.27,5.62,32.46,1014.20,2036.99,3213.02,3161.82,3438.00,348.33,315.05,13.10,0000 0000 0000 0000 000000
2013-07-20 00:33:01,-0.02,0.54,0.00,29.20,32.05,34.24,5.83,32.79,1014.18,2036.99,3213.02,3161.85,3438.00,350.38,316.90,13.11,0000 0000 0000 0000 000000
2013-07-20 00:34:02,-0.00,0.54,0.00,29.19,32.05,34.25,5.98,33.08,1014.20,2036.98,3213.04,3161.89,3438.00,350.20,317.06,13.12,0000 0000 0000 0000 000000
2013-07-20 00:35:02,-0.01,0.54,0.00,29.19,32.05,34.23,5.77,32.63,1014.19,2036.98,3213.03,3161.90,3438.00,349.93,316.76,13.12,0000 0000 0000 0000 000000
2013-07-20 00:36:02,0.00,0.54,0.00,29.16,32.05,34.20,5.85,32.79,1014.20,2036.98,3213.01,3161.88,3438.00,349.64,316.23,13.13,0000 0000 0000 0000 000000
2013-07-20 00:37:02,0.00,0.54,0.00,29.16,32.05,34.22,5.80,32.67,1014.21,2036.99,3213.00,3161.83,3438.00,350.18,316.84,13.13,0000 0000 0000 0000 000000
2013-07-20 00:38:02,0.02,0.54,0.00,29.18,32.05,34.24,5.85,32.58,1014.20,2036.99,3213.00,3161.57,3437.99,350.57,317.10,13.14,0000 0000 0000 0000 000000
2013-07-20 00:39:03,0.06,0.54,0.00,29.15,32.05,34.25,5.97,33.17,1014.19,2036.98,3212.98,3161.30,3437.98,351.78,318.22,13.15,0000 0000 0000 0000 000000
2013-07-20 00:40:03,0.05,0.54,0.00,29.15,32.05,34.27,5.81,32.75,1014.18,2036.99,3212.94,3161.15,3437.97,350.32,316.91,13.15,0000 0000 0000 0000 000000
2013-07-20 00:41:03,0.05,0.54,0.00,29.16,32.05,34.29,5.94,32.71,1014.18,2036.99,3212.60,3161.07,3437.83,350.07,317.12,13.16,0000 0000 0000 0000 000000
2013-07-20 00:42:03,0.07,0.54,0.00,29.14,32.05,34.28,5.76,32.58,1014.18,2036.99,3212.24,3161.01,3437.41,349.93,316.66,13.16,0000 0000 0000 0000 000000
2013-07-20 00:43:03,0.13,0.55,0.00,29.13,32.05,34.28,5.93,32.58,1014.18,2036.99,3212.01,3160.81,3437.15,350.16,316.72,13.17,0000 0000 0000 0000 000000
2013-07-20 00:44:04,0.12,0.55,0.00,29.16,32.05,34.30,5.80,33.08,1014.18,2036.99,3211.46,3160.39,3436.97,348.52,315.21,13.17,0000 0000 0000 0000 000000
2013-07-20 00:45:04,0.19,0.55,0.00,29.14,32.04,34.26,5.74,32.54,1014.19,2036.99,3211.13,3160.14,3436.46,349.98,316.97,13.18,0000 0000 0000 0000 000000
2013-07-20 00:46:04,0.16,0.55,0.00,29.11,32.04,34.25,5.81,32.21,1014.19,2036.99,3210.85,3160.01,3436.17,349.24,316.27,13.19,0000 0000 0000 0000 000000
2013-07-20 00:47:05,0.11,0.55,0.00,29.10,32.03,34.23,5.94,33.13,1014.20,2036.99,3210.34,3159.60,3436.04,350.39,317.35,13.19,0000 0000 0000 0000 000000
2013-07-20 00:48:05,0.18,0.55,0.00,29.10,32.03,34.23,5.79,32.13,1014.21,2036.99,3210.12,3159.37,3436.00,350.59,317.21,13.20,0000 0000 0000 0000 000000
2013-07-20 00:49:05,0.08,0.55,0.00,29.10,32.03,34.24,6.03,33.25,1014.19,2036.99,3209.96,3159.16,3435.67,350.92,317.51,13.20,0000 0000 0000 0000 000000
2013-07-20 00:50:06,0.11,0.55,0.00,29.12,32.02,34.25,5.77,32.42,1014.18,2036.98,3209.43,3159.03,3435.26,348.68,315.45,13.21,0000 0000 0000 0000 000000
2013-07-20 00:51:06,0.14,0.55,0.00,29.09,32.02,34.23,5.93,32.25,1014.18,2036.99,3209.15,3158.72,3435.08,350.59,317.21,13.22,0000 0000 0000 0000 000000
2013-07-20 00:52:06,0.15,0.55,0.00,29.08,32.02,34.23,5.81,32.42,1014.18,2036.99,3208.66,3158.28,3434.68,350.54,317.17,13.22,0000 0000 0000 0000 000000
2013-07-20 00:53:07,0.20,0.55,0.00,29.09,32.02,34.17,5.87,32.33,1014.19,2036.99,3208.25,3158.10,3434.30,350.46,316.79,13.23,0000 0000 0000 0000 000000
2013-07-20 00:54:07,0.13,0.55,0.00,29.11,32.02,34.23,5.93,32.08,1014.19,2036.99,3208.09,3158.03,3434.12,350.54,316.92,13.23,0000 0000 0000 0000 000000
2013-07-20 00:55:07,0.05,0.55,0.00,29.10,32.02,34.21,5.79,32.13,1014.19,2036.99,3207.95,3157.94,3434.04,350.15,316.81,13.24,0000 0000 0000 0000 000000
2013-07-20 00:56:07,0.08,0.56,0.00,29.11,32.02,34.22,5.72,31.83,1014.20,2036.99,3207.45,3157.51,3433.79,349.08,315.82,13.24,0000 0000 0000 0000 000000
2013-07-20 00:57:08,0.19,0.56,0.00,29.10,32.02,34.21,5.67,31.75,1014.20,2036.99,3207.16,3157.19,3433.38,349.16,316.41,13.25,0000 0000 0000 0000 000000
2013-07-20 00:58:08,0.15,0.56,0.00,29.06,32.02,34.18,5.68,31.83,1014.19,2036.99,3206.97,3157.07,3433.15,350.49,317.01,13.26,0000 0000 0000 0000 000000
2013-07-20 00:59:08,0.09,0.56,0.00,29.08,32.02,34.21,5.82,32.63,1014.19,2036.99,3206.56,3156.94,3433.05,350.72,317.33,13.26,0000 0000 0000 0000 000000
2013-07-20 01:00:09,0.09,0.56,0.00,29.12,32.02,34.25,5.78,32.33,1014.18,2036.99,3206.21,3156.64,3432.99,350.26,316.67,13.27,0000 0000 0000 0000 000000
2013-07-20 01:01:09,0.11,0.56,0.00,29.13,32.02,34.23,5.83,32.29,1014.18,2036.99,3206.07,3156.40,3432.92,349.59,316.27,13.27,0000 0000 0000 0000 000000
2013-07-20 01:02:09,0.09,0.56,0.00,29.11,32.02,34.24,5.76,32.08,1014.18,2036.99,3206.02,3156.22,3432.63,349.11,315.63,13.28,0000 0000 0000 0000 000000
2013-07-20 01:03:10,0.08,0.56,0.00,29.10,32.01,34.23,5.81,31.88,1014.18,2036.99,3205.96,3156.09,3432.30,350.38,317.12,13.29,0000 0000 0000 0000 000000
2013-07-20 01:04:10,0.07,0.56,0.00,29.09,32.01,34.20,5.77,32.29,1014.19,2036.99,3205.76,3156.03,3432.15,349.44,316.17,13.29,0000 0000 0000 0000 000000
2013-07-20 01:05:10,0.05,0.56,0.00,29.06,32.01,34.27,5.93,32.08,1014.18,2037.00,3205.41,3156.01,3432.05,351.44,318.01,13.30,0000 0000 0000 0000 000000
2013-07-20 01:06:11,0.07,0.56,0.00,29.07,32.00,34.25,5.66,32.13,1014.19,2037.00,3205.16,3156.00,3432.02,348.87,315.65,13.30,0000 0000 0000 0000 000000
2013-07-20 01:07:11,0.03,0.56,0.00,29.10,32.00,34.25,5.86,32.42,1014.19,2037.00,3205.07,3156.00,3432.00,350.16,316.82,13.31,0000 0000 0000 0000 000000
2013-07-20 01:08:11,0.01,0.56,0.00,29.06,32.00,34.26,5.93,32.71,1014.18,2037.01,3205.02,3156.00,3432.00,351.07,317.66,13.31,0000 0000 0000 0000 000000
2013-07-20 01:09:12,0.01,0.56,0.00,29.06,32.00,34.23,5.89,32.79,1014.18,2037.00,3205.00,3156.00,3432.00,350.49,317.49,13.32,0000 0000 0000 0000 000000
2013-07-20 01:10:12,0.00,0.56,0.00,29.10,32.00,34.24,5.89,32.67,1014.18,2037.00,3205.00,3155.96,3432.00,349.16,316.03,13.33,0000 0000 0000 0000 000000
2013-07-20 01:11:12,0.01,0.56,0.00,29.09,32.00,34.25,5.75,32.21,1014.18,2037.00,3204.94,3155.75,3431.97,350.11,316.96,13.33,0000 0000 0000 0000 000000
2013-07-20 01:12:12,0.06,0.56,0.00,29.07,32.00,34.23,5.84,32.42,1014.18,2037.00,3204.83,3155.45,3431.83,349.78,316.22,13.34,0000 0000 0000 0000 000000
2013-07-20 01:13:13,0.11,0.56,0.00,29.11,32.00,34.22,5.67,31.96,1014.18,2037.00,3204.47,3155.20,3431.48,348.44,315.24,13.34,0000 0000 0000 0000 000000
2013-07-20 01:14:13,0.14,0.56,0.00,29.10,32.00,34.22,5.76,32.50,1014.18,2037.00,3204.17,3155.08,3431.19,350.63,317.23,13.35,0000 0000 0000 0000 000000
2013-07-20 01:15:13,0.10,0.56,0.00,29.10,32.00,34.21,5.92,32.92,1014.18,2037.00,3204.06,3155.03,3431.07,349.29,316.02,13.36,0000 0000 0000 0000 000000
2013-07-20 01:16:14,0.04,0.56,0.00,29.11,32.00,34.22,5.79,32.17,1014.18,2037.00,3204.02,3155.01,3431.02,350.23,316.63,13.36,0000 0000 0000 0000 000000
2013-07-20 01:17:14,0.01,0.56,0.00,29.09,32.00,34.25,5.77,32.54,1014.18,2037.00,3203.98,3154.98,3431.00,348.38,315.20,13.37,0000 0000 0000 0000 000000
2013-07-20 01:18:14,0.01,0.56,0.00,29.11,32.00,34.26,5.76,32.08,1014.18,2037.00,3203.83,3154.99,3431.00,349.81,316.11,13.37,0000 0000 0000 0000 000000
2013-07-20 01:19:15,0.02,0.56,0.00,29.11,32.00,34.22,5.98,33.00,1014.18,2037.01,3203.61,3154.95,3430.99,349.64,316.48,13.38,0000 0000 0000 0000 000000
2013-07-20 01:20:15,0.04,0.57,0.00,29.10,32.00,34.22,6.02,33.04,1014.18,2037.00,3203.28,3154.81,3430.92,350.10,316.76,13.39,0000 0000 0000 0000 000000
2013-07-20 01:21:15,0.07,0.57,0.00,29.09,32.00,34.21,5.81,32.33,1014.18,2037.00,3203.12,3154.58,3430.79,349.76,316.46,13.39,0000 0000 0000 0000 000000
2013-07-20 01:22:16,0.09,0.57,0.00,29.08,31.99,34.18,5.77,32.33,1014.18,2037.00,3203.05,3154.38,3430.57,348.45,315.29,13.40,0000 0000 0000 0000 000000
2013-07-20 01:23:16,0.08,0.57,0.00,29.09,31.99,34.19,5.96,33.21,1014.18,2037.00,3203.02,3154.21,3430.33,350.74,317.34,13.40,0000 0000 0000 0000 000000
2013-07-20 01:24:16,0.05,0.57,0.00,29.06,31.99,34.16,5.94,32.38,1014.18,2037.00,3203.00,3154.11,3430.18,350.29,316.97,13.41,0000 0000 0000 0000 000000
2013-07-20 01:25:16,0.03,0.57,0.00,29.03,31.98,34.15,5.70,31.96,1014.18,2037.00,3203.00,3154.09,3430.08,349.18,316.00,13.41,0000 0000 0000 0000 000000
2013-07-20 01:26:17,0.01,0.57,0.00,29.01,31.98,34.17,5.80,32.25,1014.18,2037.00,3203.00,3154.05,3430.06,349.62,316.07,13.42,0000 0000 0000 0000 000000
2013-07-20 01:27:17,0.01,0.57,0.00,29.02,31.98,34.20,5.90,32.71,1014.18,2037.00,3202.99,3154.03,3430.02,349.87,316.62,13.43,0000 0000 0000 0000 000000
2013-07-20 01:28:17,0.01,0.57,0.00,29.02,31.97,34.23,5.89,32.54,1014.18,2037.01,3202.97,3154.01,3430.00,350.60,317.29,13.43,0000 0000 0000 0000 000000
2013-07-20 01:29:17,0.01,0.57,0.00,29.05,31.97,34.21,5.88,32.21,1014.18,2037.00,3202.94,3154.00,3430.00,350.40,317.08,13.44,0000 0000 0000 0000 000000
2013-07-20 01:30:18,0.00,0.57,0.00,29.08,31.97,34.25,5.81,31.96,1014.18,2037.00,3202.74,3154.00,3430.00,348.37,315.21,13.44,0000 0000 0000 0000 000000
2013-07-20 01:31:18,0.03,0.57,0.00,29.09,31.97,34.23,5.72,32.33,1014.18,2037.01,3202.42,3154.00,3430.00,348.34,315.17,13.45,0000 0000 0000 0000 000000
2013-07-20 01:32:18,0.05,0.57,0.00,29.06,31.97,34.23,5.83,32.08,1014.18,2037.02,3202.16,3153.98,3430.00,349.35,315.59,13.46,0000 0000 0000 0000 000000
2013-07-20 01:33:19,0.04,0.57,0.00,29.04,31.97,34.23,5.62,32.00,1014.18,2037.02,3202.05,3153.97,3429.97,349.56,316.80,13.46,0000 0000 0000 0000 000000
2013-07-20 01:34:19,0.01,0.57,0.00,29.06,31.97,34.21,5.89,32.38,1014.18,2037.01,3202.02,3153.90,3429.91,351.46,318.07,13.47,0000 0000 0000 0000 000000
2013-07-20 01:35:19,0.01,0.57,0.00,29.13,31.97,34.20,5.81,32.46,1014.18,2037.01,3202.00,3153.85,3429.82,348.71,316.03,13.47,0000 0000 0000 0000 000000
2013-07-20 01:36:19,0.05,0.57,0.00,29.14,31.97,34.18,5.94,32.71,1014.18,2037.03,3201.97,3153.61,3429.46,350.13,317.07,13.48,0000 0000 0000 0000 000000
2013-07-20 01:37:20,0.14,0.57,0.00,29.11,31.97,34.15,6.02,33.08,1014.18,2037.03,3201.54,3153.25,3429.20,351.12,316.62,13.48,0000 0000 0000 0000 000000
2013-07-20 01:38:20,0.14,0.57,0.00,29.14,31.97,34.16,5.95,32.83,1014.18,2037.01,3201.20,3153.09,3429.07,349.91,316.55,13.49,0000 0000 0000 0000 000000
2013-07-20 01:39:20,0.07,0.57,0.00,29.10,31.97,34.16,5.75,32.38,1014.18,2037.01,3201.07,3153.03,3429.02,349.21,315.95,13.50,0000 0000 0000 0000 000000
2013-07-20 01:40:20,0.03,0.57,0.00,29.15,31.97,34.19,5.86,32.04,1014.18,2037.02,3201.02,3153.01,3428.99,349.71,316.36,13.50,0000 0000 0000 0000 000000
2013-07-20 01:41:21,0.04,0.57,0.00,29.15,31.97,34.21,5.77,32.00,1014.16,2037.06,3200.85,3152.94,3428.93,349.91,316.10,13.51,0000 0000 0000 0000 000000
2013-07-20 01:42:21,0.07,0.57,0.00,29.14,31.97,34.22,5.88,32.83,1014.17,2037.04,3200.43,3152.69,3428.51,350.64,317.20,13.51,0000 0000 0000 0000 000000
2013-07-20 01:43:21,0.15,0.57,0.00,29.18,31.97,34.25,5.96,33.33,1014.17,2037.02,3200.16,3152.28,3428.20,349.44,316.08,13.52,0000 0000 0000 0000 000000
2013-07-20 01:44:21,0.14,0.57,0.00,29.15,31.96,34.24,6.00,33.42,1014.17,2037.02,3200.05,3152.10,3428.07,350.10,316.69,13.53,0000 0000 0000 0000 000000
2013-07-20 01:45:22,0.07,0.57,0.00,29.13,31.96,34.19,5.88,32.58,1014.17,2037.04,3200.00,3152.03,3428.02,350.46,317.35,13.53,0000 0000 0000 0000 000000
2013-07-20 01:46:22,0.03,0.57,0.00,29.14,31.95,34.19,5.82,31.96,1014.15,2037.07,3199.96,3152.01,3428.00,349.62,316.28,13.54,0000 0000 0000 0000 000000
2013-07-20 01:47:22,0.02,0.57,0.00,29.13,31.95,34.19,5.88,32.79,1014.17,2037.07,3199.89,3152.00,3428.00,350.44,317.14,13.54,0000 0000 0000 0000 000000
2013-07-20 01:48:23,0.02,0.58,0.00,29.15,31.95,34.18,5.90,32.42,1014.17,2037.09,3199.67,3152.00,3428.00,350.74,316.67,13.55,0000 0000 0000 0000 000000
2013-07-20 01:49:23,0.04,0.58,0.00,29.15,31.95,34.16,5.82,32.46,1014.17,2037.06,3199.27,3152.00,3427.98,349.91,316.53,13.56,0000 0000 0000 0000 000000
2013-07-20 01:50:23,0.03,0.58,0.00,29.16,31.95,34.17,5.83,32.13,1014.17,2037.03,3199.11,3151.99,3427.86,348.37,315.13,13.56,0000 0000 0000 0000 000000
2013-07-20 01:51:23,0.01,0.58,0.00,29.15,31.95,34.19,5.84,31.88,1014.17,2037.03,3199.04,3151.95,3427.70,349.65,316.41,13.57,0000 0000 0000 0000 000000
2013-07-20 01:52:24,0.03,0.58,0.00,29.13,31.95,34.23,5.83,32.46,1014.17,2037.03,3199.01,3151.94,3427.71,350.53,317.30,13.57,0000 0000 0000 0000 000000
2013-07-20 01:53:24,0.00,0.58,0.00,29.11,31.95,34.22,5.73,31.75,1014.17,2037.06,3199.01,3151.96,3427.84,349.25,316.41,13.58,0000 0000 0000 0000 000000
2013-07-20 01:54:24,0.02,0.58,0.00,29.09,31.95,34.21,5.73,32.54,1014.17,2037.15,3199.01,3151.96,3427.88,349.99,316.52,13.58,0000 0000 0000 0000 000000
2013-07-20 01:55:25,0.03,0.58,0.00,29.12,31.95,34.21,5.96,33.00,1014.17,2037.14,3199.00,3151.94,3427.79,350.97,317.47,13.59,0000 0000 0000 0000 000000
2013-07-20 01:56:25,0.01,0.58,0.00,29.15,31.95,34.21,5.67,32.38,1014.17,2037.13,3199.00,3151.93,3427.82,350.36,316.46,13.60,0000 0000 0000 0000 000000
2013-07-20 01:57:25,-0.01,0.58,0.00,29.15,31.95,34.18,5.65,31.96,1014.16,2037.12,3199.00,3151.93,3427.78,348.16,314.94,13.60,0000 0000 0000 0000 000000
2013-07-20 01:58:25,-0.00,0.58,0.00,29.16,31.95,34.18,5.78,32.63,1014.17,2037.10,3199.00,3151.87,3427.53,349.23,315.90,13.61,0000 0000 0000 0000 000000
2013-07-20 01:59:26,0.03,0.58,0.00,29.11,31.95,34.21,5.84,32.50,1014.16,2037.09,3199.00,3151.82,3427.47,350.37,316.99,13.61,0000 0000 0000 0000 000000
2013-07-20 02:00:26,-0.01,0.58,0.00,29.10,31.95,34.23,6.06,32.67,1014.16,2037.09,3199.00,3151.88,3427.57,351.09,317.64,13.62,0000 0000 0000 0000 000000
2013-07-20 02:01:26,-0.02,0.58,0.00,29.08,31.95,34.21,5.87,33.00,1014.15,2037.10,3199.00,3151.93,3427.70,350.77,317.37,13.63,0000 0000 0000 0000 000000
2013-07-20 02:02:26,-0.03,0.58,0.00,29.07,31.95,34.16,5.90,32.79,1014.15,2037.11,3199.00,3151.96,3427.82,350.85,317.07,13.63,0000 0000 0000 0000 000000
2013-07-20 02:03:26,0.04,0.58,0.00,29.08,31.95,34.17,5.82,32.50,1014.17,2037.21,3199.00,3151.98,3427.86,350.00,316.58,13.64,0000 0000 0000 0000 000000
2013-07-20 02:04:27,0.03,0.58,0.00,29.10,31.95,34.17,5.82,32.71,1014.14,2037.27,3199.00,3151.98,3427.92,349.79,316.60,13.64,0000 0000 0000 0000 000000
2013-07-20 02:05:27,0.04,0.58,0.00,29.14,31.95,34.16,5.92,32.92,1014.14,2037.26,3199.00,3151.99,3427.87,351.05,317.56,13.65,0000 0000 0000 0000 000000
2013-07-20 02:06:27,-0.02,0.58,0.00,29.11,31.95,34.21,5.85,32.71,1014.12,2037.18,3199.00,3151.95,3427.71,349.26,315.97,13.65,0000 0000 0000 0000 000000
2013-07-20 02:07:28,-0.05,0.58,0.00,29.11,31.95,34.19,5.74,32.71,1014.13,2037.18,3199.00,3151.95,3427.80,349.75,316.42,13.66,0000 0000 0000 0000 000000
2013-07-20 02:08:28,0.05,0.58,0.00,29.08,31.95,34.19,5.74,32.58,1014.12,2037.32,3199.00,3151.97,3427.90,349.36,316.02,13.67,0000 0000 0000 0000 000000
2013-07-20 02:09:28,0.08,0.58,0.00,29.08,31.95,34.17,5.77,32.67,1014.14,2037.37,3199.00,3151.98,3427.89,350.07,316.63,13.67,0000 0000 0000 0000 000000
2013-07-20 02:10:29,0.02,0.58,0.00,29.08,31.95,34.18,5.92,32.63,1014.16,2037.37,3199.00,3151.97,3427.89,350.20,316.86,13.68,0000 0000 0000 0000 000000
2013-07-20 02:11:29,0.00,0.58,0.00,29.10,31.95,34.21,5.92,33.25,1014.15,2037.40,3199.00,3151.99,3427.92,349.56,316.26,13.68,0000 0000 0000 0000 000000
2013-07-20 02:12:29,0.02,0.58,0.00,29.10,31.95,34.23,5.83,32.58,1014.16,2037.41,3199.00,3151.99,3427.94,350.48,317.02,13.69,0000 0000 0000 0000 000000
2013-07-20 02:13:29,0.04,0.58,0.00,29.09,31.94,34.23,5.78,32.21,1014.17,2037.47,3199.00,3151.98,3427.91,351.08,317.43,13.70,0000 0000 0000 0000 000000
2013-07-20 02:14:30,-0.00,0.58,0.00,29.11,31.94,34.20,5.90,33.08,1014.16,2037.45,3199.00,3151.98,3427.90,349.58,316.14,13.70,0000 0000 0000 0000 000000
2013-07-20 02:15:30,-0.02,0.58,0.00,29.10,31.94,34.18,5.78,32.67,1014.17,2037.32,3199.00,3151.97,3427.91,350.37,316.99,13.71,0000 0000 0000 0000 000000
2013-07-20 02:16:30,-0.08,0.58,0.00,29.09,31.94,34.21,5.83,32.88,1014.17,2037.18,3199.00,3151.98,3427.84,350.13,316.79,13.71,0000 0000 0000 0000 000000
2013-07-20 02:17:31,-0.10,0.58,0.00,29.08,31.94,34.21,5.86,32.58,1014.16,2037.16,3199.00,3151.98,3427.84,350.68,317.30,13.72,0000 0000 0000 0000 000000
2013-07-20 02:18:31,-0.03,0.58,0.00,29.08,31.93,34.19,5.57,32.17,1014.17,2037.14,3199.00,3151.99,3427.88,348.04,314.91,13.73,0000 0000 0000 0000 000000
2013-07-20 02:19:31,0.00,0.58,0.00,29.09,31.93,34.23,5.82,32.63,1014.16,2037.22,3199.01,3151.97,3427.84,350.54,317.16,13.73,0000 0000 0000 0000 000000
2013-07-20 02:20:31,0.08,0.58,0.00,29.06,31.93,34.22,5.89,32.54,1014.15,2037.32,3199.00,3151.98,3427.83,350.17,316.85,13.74,0000 0000 0000 0000 000000
2013-07-20 02:21:31,0.09,0.58,0.00,29.07,31.93,34.22,5.89,32.79,1014.13,2037.33,3199.00,3151.96,3427.88,349.58,316.30,13.74,0000 0000 0000 0000 000000
2013-07-20 02:22:32,-0.02,0.58,0.00,29.05,31.93,34.20,6.09,33.17,1014.15,2037.27,3199.00,3151.96,3427.93,351.76,317.93,13.75,0000 0000 0000 0000 000000
2013-07-20 02:23:32,-0.02,0.58,0.00,29.07,31.93,34.24,5.77,32.88,1014.11,2037.32,3199.00,3151.96,3427.95,349.34,316.31,13.75,0000 0000 0000 0000 000000
2013-07-20 02:24:32,0.01,0.58,0.00,29.08,31.93,34.22,5.81,32.25,1014.13,2037.25,3199.00,3151.96,3427.91,350.77,317.36,13.76,0000 0000 0000 0000 000000
2013-07-20 02:25:32,-0.06,0.58,0.00,29.09,31.92,34.19,5.68,32.00,1014.12,2037.27,3199.00,3151.98,3427.91,349.98,316.70,13.77,0000 0000 0000 0000 000000
2013-07-20 02:26:33,0.02,0.58,0.00,29.11,31.93,34.18,5.66,32.13,1014.14,2037.27,3199.00,3151.98,3427.87,349.48,315.97,13.77,0000 0000 0000 0000 000000
2013-07-20 02:27:33,0.01,0.58,0.00,29.13,31.92,34.19,5.77,32.75,1014.16,2037.20,3199.00,3151.96,3427.75,349.28,315.97,13.78,0000 0000 0000 0000 000000
2013-07-20 02:28:33,-0.02,0.58,0.00,29.13,31.92,34.20,5.98,33.04,1014.15,2037.20,3199.00,3151.98,3427.67,351.32,317.99,13.78,0000 0000 0000 0000 000000
2013-07-20 02:29:34,-0.01,0.58,0.00,29.11,31.92,34.20,5.96,32.88,1014.14,2037.30,3199.00,3151.99,3427.79,350.62,316.71,13.79,0000 0000 0000 0000 000000
2013-07-20 02:30:34,0.09,0.58,0.00,29.12,31.92,34.22,5.90,32.92,1014.09,2037.38,3199.00,3151.96,3427.81,349.10,316.12,13.80,0000 0000 0000 0000 000000
2013-07-20 02:31:34,0.04,0.58,0.00,29.11,31.92,34.21,5.88,32.88,1014.13,2037.37,3199.00,3151.95,3427.83,349.32,316.02,13.80,0000 0000 0000 0000 000000
2013-07-20 02:32:35,-0.00,0.58,0.00,29.11,31.92,34.20,5.81,32.67,1014.12,2037.34,3199.00,3151.91,3427.80,349.94,316.09,13.81,0000 0000 0000 0000 000000
2013-07-20 02:33:35,0.00,0.58,0.00,29.12,31.92,34.19,5.98,33.04,1014.15,2037.31,3199.00,3151.93,3427.83,350.29,316.90,13.81,0000 0000 0000 0000 000000
2013-07-20 02:34:35,0.00,0.58,0.00,29.13,31.92,34.19,5.73,32.42,1014.15,2037.36,3199.00,3151.96,3427.86,348.58,315.35,13.82,0000 0000 0000 0000 000000
2013-07-20 02:35:35,0.00,0.58,0.00,29.14,31.92,34.22,5.82,32.67,1014.14,2037.43,3199.00,3151.95,3427.86,349.50,315.88,13.83,0000 0000 0000 0000 000000
2013-07-20 02:36:36,0.04,0.58,0.00,29.15,31.92,34.22,5.63,31.67,1014.11,2037.45,3199.00,3151.96,3427.91,348.56,315.29,13.83,0000 0000 0000 0000 000000